Showing default

SHIYAN 28B-01(SY-28B 01), 64753

Orbit data source: Space-Track

SHIYAN 28B-01(SY-28B 01), 64753 is a payload satellite owned by PLA GAD (CN) in LEO that was launched on Thu, 03 Jul 2025 UTC via a CHANG ZHENG 4C launch vehicle from the Xichang Space Center, China (XSC). Payload-class satellites include a variety of spacecraft equipped with specific instruments for various scientific and technological missions. These include communications satellites like Starlink; space stations such as the ISS; scientific satellites like the Hubble; Earth observation satellites from companies like Planet Labs, Umbra, and HawkEye 360; GPS; miniature CubeSats for education and research; and military/defense satellites.

Not visible in the next 10 days
Identifier
64753, 2025-145A
Orbit
LEO
Country
Flag of CNCN / PRC
Related business
Manufacturer
IMI/CAS
Mission
Operational Defense Earth Obs Sci
Bus & Motor
Unknown
Mass
~2,000 kg wet, ~2,000 kg dry
Launch date (UTC)
2025-07-03 (10 months ago)
Launch vehicle
CHANG ZHENG 4C
Launch site
Xichang Space Center, China (XSC)
Object type
Payload
Rocket body
Debris
Shape & HBR
Box + 2 Pan, 1.9 m
Radar Cross Section
11.063 m², Large (>1 m²)

Expand to show TLE details & history
Last TLE update: 9 hours ago

TLE from 9 hours ago
0 SHIYAN 28B-01(SY-28B 01)
1 64753U 25145A   26133.24629227  .00000559  00000-0  48960-4 0  9991
2 64753  10.9979 194.2254 0002751  55.7363 304.3125 14.29385803 44901
Epoch: 2026-05-13T05:54Z
TLE epoch observation values (Epoch: 2026-05-13T05:54:39.652Z)
Latitude
-0.00001°
Longitude
-125.44891°
Altitude
789.839 km
Speed
7.462 km/s
True Right ascension
12h 56m 54s
True Declination
0° 00' 00"
Sunlit
Object was in full shadow at epoch
Visualization orbit readout
Latitude
Unknown
Longitude
Unknown
Altitude
Unknown
Speed
Unknown
Apparent Right ascension
Unknown
Apparent Declination
Unknown
Sunlit
N/A
Visualization observer readout
Local Sidereal Time
22:53:44
Azimuth
Unknown
Elevation
Unknown
Doppler factor
Unknown
Orbital elements
Apogee altitude
801.573 km
Perigee altitude
797.624 km
Semi-major axis
7,177.735 km
Eccentricity
0.00028
Inclination
10.9979°
RAAN
194.2254°
Arg. of periapsis
55.7363°
True anomaly
304.28646°
Mean anomaly
304.3125°
Eccentric anomaly
304.29948°
Mean motion
3.56913 °/min
Orbital period
100.86 mins
BSTAR
0.00004896
Loading maneuver chart data...
Computing Atmospheric mass density...
Loading historical data...
Loading historical data...
Loading historical data...
Loading historical data...
Loading historical data...
Loading historical data...
Loading historical data...
Other satellites on launch #145 in the year 2025 (2025-07-03 UTC)

Documentation

Showing up to 5 results
|